Location: Arleux
(50.3632°N, 2.8721°E)
Time: 06:30:13
(UTC+00:00)

ATLAS CENTAUR R/B - Pass Details

Date: 15 December 2019
Orbit: 454 x 694 km, 64.6° (Epoch: 17 January)

Event Time Altitude Azimuth Distance (km) Brightness Sun altitude
Exits shadow 04:42:33 35° 46° (NE) 910 2.7 -27.2°
Drops below altitude 10° 04:46:01 10° 105° (ESE) 1,785 4.9 -26.7°
Sets 04:48:14 0° 114° (ESE) 2,631 5.9 -26.3°
